When you browse on this site, cookies collect data to enhance your experience and personalize the content and advertising you see.
Visit our Privacy Policy to learn more. By continuing to use the site, you agree to this use of cookies and data.
  • In Denmark
  • List of Countries
  • For 7 days
  • Water Temperature
  • Satellite Maps
  • Weather Map
  • Weather Widgets
  • user-avatar
    Login

    Hourly Weather Bulakty

    Today, 16 December, Sunday

    Time Temperature Precipitation Wind Pressure Humidity
    00:00 +4°C° 0 mm 4 mps 695 mmHg 56%
    01:00 +4°C° 0 mm 4 mps 695 mmHg 55%
    02:00 +4°C° 0 mm 4 mps 695 mmHg 53%
    03:00 +4°C° 0 mm 4 mps 695 mmHg 53%
    04:00 +4°C° 0 mm 3 mps 695 mmHg 53%
    05:00 +4°C° 0 mm 3 mps 695 mmHg 53%
    06:00 +4°C° 0 mm 3 mps 695 mmHg 54%
    07:00 +4°C° 0 mm 3 mps 696 mmHg 54%
    08:00 +5°C° 0 mm 2 mps 696 mmHg 55%
    09:00 +4°C° 0 mm 3 mps 697 mmHg 56%
    10:00 +5°C° 0 mm 3 mps 697 mmHg 57%
    11:00 +6°C° 0 mm 4 mps 698 mmHg 57%
    12:00 +5°C° 0.1 mm 3 mps 698 mmHg 65%
    13:00 +5°C° 0.1 mm 2 mps 698 mmHg 72%
    14:00 +5°C° 0.1 mm 2 mps 698 mmHg 80%
    15:00 +5°C° 0.2 mm 1 mps 699 mmHg 83%
    16:00 +4°C° 0.2 mm 1 mps 700 mmHg 87%
    17:00 +3°C° 0.2 mm 1 mps 701 mmHg 90%
    18:00 +3°C° 0.2 mm 1 mps 701 mmHg 91%
    19:00 +3°C° 0.2 mm 1 mps 702 mmHg 91%
    20:00 +3°C° 0.2 mm 1 mps 702 mmHg 91%
    21:00 +2°C° 0.1 mm 1 mps 702 mmHg 91%
    22:00 +2°C° 0.1 mm 1 mps 703 mmHg 90%
    23:00 -1°C° 0.1 mm 2 mps 703 mmHg 89%

    Tomorrow, 17 December, Monday

    Time Temperature Precipitation Wind Pressure Humidity
    00:00 -1°C° 0 mm 2 mps 702 mmHg 88%
    01:00 -1°C° 0 mm 2 mps 702 mmHg 87%
    02:00 -1°C° 0 mm 2 mps 702 mmHg 86%
    03:00 -1°C° 0 mm 2 mps 702 mmHg 84%
    04:00 -1°C° 0 mm 2 mps 702 mmHg 82%
    05:00 -1°C° 0 mm 2 mps 702 mmHg 80%
    06:00 -1°C° 0 mm 3 mps 701 mmHg 79%
    07:00 -1°C° 0 mm 3 mps 701 mmHg 78%
    08:00 -1°C° 0 mm 3 mps 701 mmHg 77%
    09:00 0°C° 0 mm 3 mps 700 mmHg 75%
    10:00 +1°C° 0 mm 3 mps 700 mmHg 74%
    11:00 +2°C° 0 mm 3 mps 699 mmHg 72%
    12:00 +3°C° 0.1 mm 3 mps 698 mmHg 73%
    13:00 +3°C° 0.1 mm 3 mps 698 mmHg 74%
    14:00 +3°C° 0.1 mm 3 mps 697 mmHg 75%
    15:00 +2°C° 0.1 mm 3 mps 697 mmHg 78%
    16:00 +2°C° 0.1 mm 3 mps 698 mmHg 80%
    17:00 +1°C° 0.1 mm 3 mps 698 mmHg 82%
    18:00 +1°C° 0.1 mm 3 mps 698 mmHg 82%
    19:00 +2°C° 0.1 mm 2 mps 698 mmHg 81%
    20:00 +2°C° 0.1 mm 2 mps 697 mmHg 81%
    21:00 +2°C° 0.1 mm 2 mps 697 mmHg 79%
    22:00 +1°C° 0.1 mm 3 mps 697 mmHg 78%
    23:00 +2°C° 0.1 mm 3 mps 697 mmHg 77%

    Day after tomorrow, 18 December, Tuesday

    Time Temperature Precipitation Wind Pressure Humidity
    00:00 +2°C° 0.1 mm 3 mps 696 mmHg 75%
    01:00 +2°C° 0.1 mm 3 mps 696 mmHg 74%
    02:00 +2°C° 0.1 mm 3 mps 696 mmHg 73%
    03:00 +2°C° 0.1 mm 3 mps 695 mmHg 71%
    04:00 +2°C° 0.1 mm 3 mps 695 mmHg 69%
    05:00 +1°C° 0.1 mm 4 mps 694 mmHg 68%
    06:00 +3°C° 0.1 mm 4 mps 694 mmHg 67%
    07:00 +3°C° 0.1 mm 4 mps 694 mmHg 67%
    08:00 +3°C° 0.1 mm 4 mps 694 mmHg 66%
    09:00 +3°C° 0.1 mm 4 mps 693 mmHg 65%
    10:00 +4°C° 0.1 mm 4 mps 693 mmHg 64%
    11:00 +5°C° 0.1 mm 4 mps 692 mmHg 62%
    12:00 +4°C° 0.2 mm 4 mps 692 mmHg 67%
    13:00 +3°C° 0.2 mm 4 mps 692 mmHg 72%
    14:00 +3°C° 0.2 mm 3 mps 692 mmHg 78%
    15:00 +2°C° 0.7 mm 3 mps 693 mmHg 82%
    16:00 0°C° 0.7 mm 4 mps 694 mmHg 86%
    17:00 -1°C° 0.7 mm 4 mps 695 mmHg 90%
    18:00 -1°C° 0.2 mm 3 mps 696 mmHg 88%
    19:00 -1°C° 0.2 mm 3 mps 696 mmHg 86%
    20:00 -2°C° 0.2 mm 2 mps 697 mmHg 84%
    21:00 -2°C° 0 mm 2 mps 696 mmHg 82%
    22:00 -3°C° 0 mm 2 mps 696 mmHg 81%
    23:00 -4°C° 0 mm 2 mps 696 mmHg 79%

    19 December, Wednesday

    Time Temperature Precipitation Wind Pressure Humidity
    00:00 -4°C° 0 mm 2 mps 696 mmHg 75%
    01:00 -4°C° 0 mm 2 mps 696 mmHg 71%
    02:00 -4°C° 0 mm 2 mps 696 mmHg 67%
    03:00 -4°C° 0 mm 2 mps 696 mmHg 64%
    04:00 -4°C° 0 mm 2 mps 696 mmHg 61%
    05:00 -4°C° 0 mm 2 mps 696 mmHg 58%
    06:00 -4°C° 0 mm 2 mps 696 mmHg 60%
    07:00 -3°C° 0 mm 2 mps 696 mmHg 62%
    08:00 -3°C° 0 mm 2 mps 696 mmHg 64%
    09:00 -2°C° 0 mm 2 mps 696 mmHg 67%
    10:00 -2°C° 0 mm 2 mps 696 mmHg 71%
    11:00 -1°C° 0 mm 2 mps 696 mmHg 74%
    12:00 -1°C° 0.1 mm 2 mps 696 mmHg 77%
    13:00 -1°C° 0.1 mm 2 mps 696 mmHg 80%
    14:00 -1°C° 0.1 mm 2 mps 696 mmHg 83%
    15:00 -1°C° 0.1 mm 2 mps 696 mmHg 86%
    16:00 -2°C° 0.1 mm 2 mps 696 mmHg 88%
    17:00 -2°C° 0.1 mm 2 mps 697 mmHg 91%
    18:00 -2°C° 0.1 mm 2 mps 697 mmHg 90%
    19:00 -2°C° 0.1 mm 2 mps 698 mmHg 90%
    20:00 -2°C° 0.1 mm 2 mps 698 mmHg 90%
    21:00 -2°C° 0.1 mm 2 mps 698 mmHg 89%
    22:00 -2°C° 0.1 mm 2 mps 698 mmHg 89%
    23:00 0°C° 0.1 mm 1 mps 698 mmHg 89%

    20 December, Thursday

    Time Temperature Precipitation Wind Pressure Humidity
    00:00 0°C° 0.1 mm 1 mps 698 mmHg 89%
    01:00 0°C° 0.1 mm 1 mps 699 mmHg 89%
    02:00 0°C° 0.1 mm 1 mps 699 mmHg 89%
    03:00 -1°C° 0.1 mm 1 mps 699 mmHg 88%
    04:00 -1°C° 0.1 mm 1 mps 699 mmHg 88%
    05:00 -1°C° 0.1 mm 1 mps 699 mmHg 88%
    06:00 -1°C° 0.1 mm 1 mps 700 mmHg 88%
    07:00 -1°C° 0.1 mm 1 mps 700 mmHg 88%
    08:00 -1°C° 0.1 mm 1 mps 700 mmHg 88%
    09:00 0°C° 0.1 mm 1 mps 700 mmHg 86%
    10:00 +1°C° 0.1 mm 1 mps 700 mmHg 84%
    11:00 -1°C° 0.1 mm 2 mps 700 mmHg 82%
    12:00 -1°C° 0.1 mm 2 mps 700 mmHg 82%
    13:00 -1°C° 0.1 mm 2 mps 700 mmHg 82%
    14:00 +1°C° 0.1 mm 2 mps 700 mmHg 82%
    15:00 -1°C° 0.1 mm 2 mps 700 mmHg 85%
    16:00 -2°C° 0.1 mm 2 mps 700 mmHg 87%
    17:00 -2°C° 0.1 mm 2 mps 700 mmHg 89%
    18:00 -2°C° 0.1 mm 2 mps 700 mmHg 88%
    19:00 -3°C° 0.1 mm 2 mps 700 mmHg 88%
    20:00 -3°C° 0.1 mm 2 mps 700 mmHg 87%
    21:00 -3°C° 0.1 mm 2 mps 700 mmHg 86%
    22:00 -3°C° 0.1 mm 2 mps 700 mmHg 85%
    23:00 -3°C° 0.1 mm 2 mps 699 mmHg 84%

    21 December, Friday

    Time Temperature Precipitation Wind Pressure Humidity
    00:00 -3°C° 0.1 mm 2 mps 699 mmHg 83%
    01:00 -3°C° 0.1 mm 2 mps 699 mmHg 82%
    02:00 -3°C° 0.1 mm 2 mps 699 mmHg 81%
    03:00 -3°C° 0 mm 2 mps 699 mmHg 80%
    04:00 -3°C° 0 mm 2 mps 698 mmHg 79%
    05:00 -3°C° 0 mm 2 mps 698 mmHg 78%
    06:00 -3°C° 0.1 mm 2 mps 698 mmHg 77%
    07:00 -2°C° 0.1 mm 2 mps 698 mmHg 77%
    08:00 -2°C° 0.1 mm 2 mps 698 mmHg 76%
    09:00 -1°C° 0 mm 3 mps 698 mmHg 74%
    10:00 -1°C° 0 mm 3 mps 697 mmHg 72%
    11:00 0°C° 0 mm 3 mps 697 mmHg 70%
    12:00 0°C° 0 mm 3 mps 696 mmHg 70%
    13:00 +1°C° 0 mm 3 mps 695 mmHg 70%
    14:00 +1°C° 0 mm 3 mps 695 mmHg 69%
    15:00 0°C° 0 mm 3 mps 695 mmHg 70%
    16:00 -1°C° 0 mm 3 mps 695 mmHg 71%
    17:00 -2°C° 0 mm 3 mps 695 mmHg 72%
    18:00 -2°C° 0 mm 3 mps 695 mmHg 70%
    19:00 -4°C° 0 mm 3 mps 694 mmHg 68%
    20:00 -4°C° 0 mm 3 mps 694 mmHg 66%
    21:00 -2°C° 0 mm 3 mps 694 mmHg 65%
    22:00 -2°C° 0 mm 3 mps 693 mmHg 65%
    23:00 -2°C° 0 mm 3 mps 693 mmHg 64%
    Show more